Location: Sternwarte_Laufen
(47.9344°N, 12.9346°E)
Time: 03:07:03
(UTC+02:00)

ISS - Pass Details

Date: 13 July 2025
Orbit: 413 x 417 km, 51.6° (Epoch: 12 July)

Event Time Altitude Azimuth Distance (km) Brightness Sun altitude
Rises 23:33:28 0° 283° (WNW) 2,354 0.6 -16.8°
Reaches altitude 10° 23:35:37 10° 291° (WNW) 1,491 -0.3 -17.0°
Maximum altitude 23:38:50 43° 4° (N) 601 -2.5 -17.2°
Drops below altitude 10° 23:42:03 10° 78° (ENE) 1,492 -1.1 -17.4°
Enters shadow 23:42:31 - 80° (E) 1,675 -0.8 -17.4°
